FALCON HEAVY R/B, 44345

Orbit data source: Space-Track

FALCON HEAVY R/B, 44345 is space debris originally from a launch on Tue, 25 Jun 2019 UTC launched from the Air Force Eastern Test Range (AFETR). Debris objects in space refer to the collection of defunct objects orbiting the Earth. Examples of debris include non-operational satellites, rocket bodies, and fragments generated from explosions, collisions, or faulty payload assembly.

Loading next visibility...
Identifier
44345, 2019-036G
Orbit
Active
Last TLE update
3 days ago
Origin
Manufacturer
SpaceX
Mission
Spacecraft
Bus & Motor
F9ST2, Unknown motor
Mass
~4,000 kg wet, ~4,000 kg dry
Launch date (UTC)
2019-06-25 (6 years ago)
Launch vehicle
Unknown
Launch site
Air Force Eastern Test Range (AFETR)
Object type
Payload
Rocket body
Debris
Shape & HBR
Cyl, Unknown HBR
Radar Cross Section
49.816 m², Large (>1 m²)

Expand to show TLE details & history

TLE from 3 days ago
0 FALCON HEAVY R/B
1 44345U 19036G   25126.28943363 -.00000028  00000-0  00000-0 0  9994
2 44345  42.2786  64.2692 2161719 291.5061  46.9230  4.69268996100544
Epoch: 2025-05-06T06:56Z
Definitive object data (Epoch: 2025-05-06T06:56:47.065Z)
Latitude
0.00001°
Longitude
95.67317°
Altitude
6,933.552 km
Speed
5.783 km/s
True Right ascension
04h 17m 02s
True Declination
0° 00' 00"
Sunlit
Object was in daylight at TLE epoch
Visualization TLE readout
Latitude
42.25837°
Longitude
-171.0538°
Altitude
11,662.612 km
Speed
4.214 km/s
Apparent Right ascension
09h 07m 27s
Apparent Declination
30° 10' 33"
Sunlit
Object is in daylight
Visualization observer readout
Local Sidereal Time
16:10:16
Azimuth
302.769° NW
Elevation
8.225°
Doppler factor
1
Orbital elements
Apogee altitude
11,951.121 km
Perigee altitude
5,435.15 km
Semi-major axis
15,071.273 km
Eccentricity
0.2161719
Inclination
42.2786°
RAAN
64.2692°
Arg. of periapsis
291.5061°
True anomaly
68.5315°
Mean anomaly
46.923°
Eccentric anomaly
57.35177°
Mean motion
1.17305 °/min
BSTAR
Unknown
Orbital period
306.89 mins
Loading maneuver chart data...
Loading SW <> Apogee altitude chart data...
Loading historical data...
Loading historical data...
Loading historical data...
Loading historical data...
Loading historical data...
Loading historical data...
Loading historical data...

FALCON HEAVY R/B Visibility forecast

Observer location: undefined°, undefined°

Span
Click to sort rows by Start time (UTC) header in descending order
Start Az.
Max El. time (UTC)
Max El. Az.
Max El.
End time (UTC)
End Az.
115 mins2025-05-09 08:05:10.579Z301.143° NW2025-05-09 09:09:10.579Z255.16° W27.785°2025-05-09 10:00:10.579Z198.9° SSW
134 mins2025-05-09 21:51:10.579Z220.167° SW2025-05-09 22:37:10.579Z139.465° SSE44.133°2025-05-10 00:05:10.579Z71.946° E
156 mins2025-05-10 03:44:10.579Z286.96° WNW2025-05-10 05:06:10.579Z220.616° SW44.472°2025-05-10 06:20:10.579Z140.223° SSE
|